Year,Month,Day,Hour,Minute,Value (Times are PST for temperature in C)
2018,08,09,00,00,21.10
2018,08,09,00,01,21.00
2018,08,09,00,02,21.00
2018,08,09,00,03,21.00
2018,08,09,00,04,20.90
2018,08,09,00,05,20.90
2018,08,09,00,06,20.90
2018,08,09,00,07,20.90
2018,08,09,00,08,20.90
2018,08,09,00,09,20.80
2018,08,09,00,10,20.80
2018,08,09,00,11,20.80
2018,08,09,00,12,20.80
2018,08,09,00,13,20.70
2018,08,09,00,14,20.70
2018,08,09,00,15,20.70
2018,08,09,00,16,20.70
2018,08,09,00,17,20.60
2018,08,09,00,18,20.60
2018,08,09,00,19,20.60
2018,08,09,00,20,20.50
2018,08,09,00,21,20.50
2018,08,09,00,22,20.40
2018,08,09,00,23,20.40
2018,08,09,00,24,20.40
2018,08,09,00,25,20.40
2018,08,09,00,26,20.40
2018,08,09,00,27,20.40
2018,08,09,00,28,20.30
2018,08,09,00,29,20.30
2018,08,09,00,30,20.30
2018,08,09,00,31,20.30
2018,08,09,00,32,20.30
2018,08,09,00,33,20.30
2018,08,09,00,34,20.30
2018,08,09,00,35,20.30
2018,08,09,00,36,20.20
2018,08,09,00,37,20.20
2018,08,09,00,38,20.20
2018,08,09,00,39,20.20
2018,08,09,00,40,20.20
2018,08,09,00,41,20.20
2018,08,09,00,42,20.20
2018,08,09,00,43,20.10
2018,08,09,00,44,20.10
2018,08,09,00,45,20.10
2018,08,09,00,46,20.10
2018,08,09,00,47,20.00
2018,08,09,00,48,20.00
2018,08,09,00,49,20.00
2018,08,09,00,50,19.90
2018,08,09,00,51,19.90
2018,08,09,00,52,19.90
2018,08,09,00,53,19.80
2018,08,09,00,54,19.80
2018,08,09,00,55,19.80
2018,08,09,00,56,19.80
2018,08,09,00,57,19.70
2018,08,09,00,58,19.70
2018,08,09,00,59,19.70
2018,08,09,01,00,19.70
2018,08,09,01,01,19.70
2018,08,09,01,02,19.70
2018,08,09,01,03,19.60
2018,08,09,01,04,19.60
2018,08,09,01,05,19.60
2018,08,09,01,06,19.60
2018,08,09,01,07,19.60
2018,08,09,01,08,19.60
2018,08,09,01,09,19.60
2018,08,09,01,10,19.50
2018,08,09,01,11,19.50
2018,08,09,01,12,19.40
2018,08,09,01,13,19.40
2018,08,09,01,14,19.30
2018,08,09,01,15,19.30
2018,08,09,01,16,19.20
2018,08,09,01,17,19.20
2018,08,09,01,18,19.10
2018,08,09,01,19,19.10
2018,08,09,01,20,19.00
2018,08,09,01,21,19.00
2018,08,09,01,22,19.00
2018,08,09,01,23,19.00
2018,08,09,01,24,18.90
2018,08,09,01,25,18.90
2018,08,09,01,26,18.90
2018,08,09,01,27,18.90
2018,08,09,01,28,18.90
2018,08,09,01,29,18.90
2018,08,09,01,30,18.90
2018,08,09,01,31,18.90
2018,08,09,01,32,18.90
2018,08,09,01,33,18.90
2018,08,09,01,34,18.90
2018,08,09,01,35,18.90
2018,08,09,01,36,18.90
2018,08,09,01,37,18.90
2018,08,09,01,38,18.90
2018,08,09,01,39,18.90
2018,08,09,01,40,18.90
2018,08,09,01,41,18.90
2018,08,09,01,42,18.90
2018,08,09,01,43,18.90
2018,08,09,01,44,18.90
2018,08,09,01,45,18.80
2018,08,09,01,46,18.80
2018,08,09,01,47,18.80
2018,08,09,01,48,18.80
2018,08,09,01,49,18.80
2018,08,09,01,50,18.80
2018,08,09,01,51,18.80
2018,08,09,01,52,18.80
2018,08,09,01,53,18.70
2018,08,09,01,54,18.70
2018,08,09,01,55,18.60
2018,08,09,01,56,18.50
2018,08,09,01,57,18.50
2018,08,09,01,58,18.40
2018,08,09,01,59,18.30
2018,08,09,02,00,18.30
2018,08,09,02,01,18.30
2018,08,09,02,02,18.20
2018,08,09,02,03,18.20
2018,08,09,02,04,18.20
2018,08,09,02,05,18.20
2018,08,09,02,06,18.20
2018,08,09,02,07,18.10
2018,08,09,02,08,18.10
2018,08,09,02,09,18.10
2018,08,09,02,10,18.20
2018,08,09,02,11,18.20
2018,08,09,02,12,18.20
2018,08,09,02,13,18.20
2018,08,09,02,14,18.20
2018,08,09,02,15,18.20
2018,08,09,02,16,18.20
2018,08,09,02,17,18.20
2018,08,09,02,18,18.20
2018,08,09,02,19,18.20
2018,08,09,02,20,18.10
2018,08,09,02,21,18.10
2018,08,09,02,22,18.10
2018,08,09,02,23,18.10
2018,08,09,02,24,18.10
2018,08,09,02,25,18.10
2018,08,09,02,26,18.10
2018,08,09,02,27,18.10
2018,08,09,02,28,18.10
2018,08,09,02,29,18.00
2018,08,09,02,30,18.00
2018,08,09,02,31,18.00
2018,08,09,02,32,18.00
2018,08,09,02,33,17.90
2018,08,09,02,34,17.90
2018,08,09,02,35,17.80
2018,08,09,02,36,17.80
2018,08,09,02,37,17.70
2018,08,09,02,38,17.70
2018,08,09,02,39,17.70
2018,08,09,02,40,17.60
2018,08,09,02,41,17.50
2018,08,09,02,42,17.50
2018,08,09,02,43,17.50
2018,08,09,02,44,17.40
2018,08,09,02,45,17.40
2018,08,09,02,46,17.40
2018,08,09,02,47,17.40
2018,08,09,02,48,17.40
2018,08,09,02,49,17.30
2018,08,09,02,50,17.30
2018,08,09,02,51,17.30
2018,08,09,02,52,17.30
2018,08,09,02,53,17.30
2018,08,09,02,54,17.30
2018,08,09,02,55,17.20
2018,08,09,02,56,17.20
2018,08,09,02,57,17.20
2018,08,09,02,58,17.20
2018,08,09,02,59,17.20
2018,08,09,03,00,17.20
2018,08,09,03,01,17.20
2018,08,09,03,02,17.20
2018,08,09,03,03,17.20
2018,08,09,03,04,17.20
2018,08,09,03,05,17.20
2018,08,09,03,06,17.10
2018,08,09,03,07,17.10
2018,08,09,03,08,17.10
2018,08,09,03,09,17.10
2018,08,09,03,10,17.10
2018,08,09,03,11,17.10
2018,08,09,03,12,17.10
2018,08,09,03,13,17.10
2018,08,09,03,14,17.10
2018,08,09,03,15,17.10
2018,08,09,03,16,17.10
2018,08,09,03,17,17.10
2018,08,09,03,18,17.10
2018,08,09,03,19,17.10
2018,08,09,03,20,17.10
2018,08,09,03,21,17.10
2018,08,09,03,22,17.10
2018,08,09,03,23,17.10
2018,08,09,03,24,17.10
2018,08,09,03,25,17.00
2018,08,09,03,26,17.00
2018,08,09,03,27,17.00
2018,08,09,03,28,17.00
2018,08,09,03,29,16.90
2018,08,09,03,30,16.90
2018,08,09,03,31,16.90
2018,08,09,03,32,16.90
2018,08,09,03,33,16.90
2018,08,09,03,34,16.90
2018,08,09,03,35,16.90
2018,08,09,03,36,16.90
2018,08,09,03,37,16.90
2018,08,09,03,38,16.90
2018,08,09,03,39,16.90
2018,08,09,03,40,16.90
2018,08,09,03,41,16.90
2018,08,09,03,42,16.80
2018,08,09,03,43,16.80
2018,08,09,03,44,16.80
2018,08,09,03,45,16.80
2018,08,09,03,46,16.80
2018,08,09,03,47,16.80
2018,08,09,03,48,16.80
2018,08,09,03,49,16.70
2018,08,09,03,50,16.70
2018,08,09,03,51,16.70
2018,08,09,03,52,16.70
2018,08,09,03,53,16.70
2018,08,09,03,54,16.60
2018,08,09,03,55,16.60
2018,08,09,03,56,16.60
2018,08,09,03,57,16.50
2018,08,09,03,58,16.50
2018,08,09,03,59,16.60
2018,08,09,04,00,16.60
2018,08,09,04,01,16.80
2018,08,09,04,02,16.90
2018,08,09,04,03,16.90
2018,08,09,04,04,16.90
2018,08,09,04,05,16.90
2018,08,09,04,06,16.90
2018,08,09,04,07,16.90
2018,08,09,04,08,17.00
2018,08,09,04,09,17.00
2018,08,09,04,10,17.10
2018,08,09,04,11,17.20
2018,08,09,04,12,17.30
2018,08,09,04,13,17.40
2018,08,09,04,14,17.50
2018,08,09,04,15,17.50
2018,08,09,04,16,17.60
2018,08,09,04,17,17.70
2018,08,09,04,18,17.70
2018,08,09,04,19,17.80
2018,08,09,04,20,17.80
2018,08,09,04,21,17.70
2018,08,09,04,22,17.70
2018,08,09,04,23,17.60
2018,08,09,04,24,17.60
2018,08,09,04,25,17.60
2018,08,09,04,26,17.50
2018,08,09,04,27,17.50
2018,08,09,04,28,17.40
2018,08,09,04,29,17.40
2018,08,09,04,30,17.30
2018,08,09,04,31,17.20
2018,08,09,04,32,17.10
2018,08,09,04,33,16.90
2018,08,09,04,34,16.80
2018,08,09,04,35,16.70
2018,08,09,04,36,16.70
2018,08,09,04,37,16.60
2018,08,09,04,38,16.50
2018,08,09,04,39,16.40
2018,08,09,04,40,16.40
2018,08,09,04,41,16.40
2018,08,09,04,42,16.50
2018,08,09,04,43,16.60
2018,08,09,04,44,16.60
2018,08,09,04,45,16.60
2018,08,09,04,46,16.60
2018,08,09,04,47,16.60
2018,08,09,04,48,16.50
2018,08,09,04,49,16.50
2018,08,09,04,50,16.40
2018,08,09,04,51,16.30
2018,08,09,04,52,16.20
2018,08,09,04,53,16.20
2018,08,09,04,54,16.20
2018,08,09,04,55,16.10
2018,08,09,04,56,16.00
2018,08,09,04,57,16.00
2018,08,09,04,58,16.00
2018,08,09,04,59,16.00
2018,08,09,05,00,16.00
2018,08,09,05,01,16.10
2018,08,09,05,02,16.10
2018,08,09,05,03,16.20
2018,08,09,05,04,16.30
2018,08,09,05,05,16.30
2018,08,09,05,06,16.20
2018,08,09,05,07,16.20
2018,08,09,05,08,16.10
2018,08,09,05,09,16.10
2018,08,09,05,10,16.00
2018,08,09,05,11,15.90
2018,08,09,05,12,15.90
2018,08,09,05,13,15.80
2018,08,09,05,14,15.80
2018,08,09,05,15,15.80
2018,08,09,05,16,15.80
2018,08,09,05,17,15.80
2018,08,09,05,18,15.80
2018,08,09,05,19,15.80
2018,08,09,05,20,15.80
2018,08,09,05,21,15.80
2018,08,09,05,22,15.90
2018,08,09,05,23,15.90
2018,08,09,05,24,15.90
2018,08,09,05,25,15.80
2018,08,09,05,26,15.80
2018,08,09,05,27,15.70
2018,08,09,05,28,15.60
2018,08,09,05,29,15.50
2018,08,09,05,30,15.40
2018,08,09,05,31,15.30
2018,08,09,05,32,15.30
2018,08,09,05,33,15.20
2018,08,09,05,34,15.10
2018,08,09,05,35,15.10
2018,08,09,05,36,15.00
2018,08,09,05,37,15.00
2018,08,09,05,38,15.10
2018,08,09,05,39,15.10
2018,08,09,05,40,15.20
2018,08,09,05,41,15.30
2018,08,09,05,42,15.30
2018,08,09,05,43,15.30
2018,08,09,05,44,15.30
2018,08,09,05,45,15.30
2018,08,09,05,46,15.30
2018,08,09,05,47,15.30
2018,08,09,05,48,15.30
2018,08,09,05,49,15.30
2018,08,09,05,50,15.30
2018,08,09,05,51,15.20
2018,08,09,05,52,15.20
2018,08,09,05,53,15.20
2018,08,09,05,54,15.20
2018,08,09,05,55,15.20
2018,08,09,05,56,15.20
2018,08,09,05,57,15.20
2018,08,09,05,58,15.20
2018,08,09,05,59,15.20
2018,08,09,06,00,15.20
2018,08,09,06,01,15.20
2018,08,09,06,02,15.10
2018,08,09,06,03,15.10
2018,08,09,06,04,15.10
2018,08,09,06,05,15.10
2018,08,09,06,06,15.10
2018,08,09,06,07,15.00
2018,08,09,06,08,15.00
2018,08,09,06,09,15.00
2018,08,09,06,10,15.00
2018,08,09,06,11,15.00
2018,08,09,06,12,15.10
2018,08,09,06,13,15.20
2018,08,09,06,14,15.30
2018,08,09,06,15,15.40
2018,08,09,06,16,15.40
2018,08,09,06,17,15.30
2018,08,09,06,18,15.30
2018,08,09,06,19,15.30
2018,08,09,06,20,15.30
2018,08,09,06,21,15.30
2018,08,09,06,22,15.20
2018,08,09,06,23,15.20
2018,08,09,06,24,15.20
2018,08,09,06,25,15.20
2018,08,09,06,26,15.20
2018,08,09,06,27,15.20
2018,08,09,06,28,15.20
2018,08,09,06,29,15.20
2018,08,09,06,30,15.20
2018,08,09,06,31,15.20
2018,08,09,06,32,15.20
2018,08,09,06,33,15.30
2018,08,09,06,34,15.30
2018,08,09,06,35,15.30
2018,08,09,06,36,15.30
2018,08,09,06,37,15.40
2018,08,09,06,38,15.40
2018,08,09,06,39,15.50
2018,08,09,06,40,15.50
2018,08,09,06,41,15.60
2018,08,09,06,42,15.60
2018,08,09,06,43,15.70
2018,08,09,06,44,15.70
2018,08,09,06,45,15.80
2018,08,09,06,46,15.80
2018,08,09,06,47,15.90
2018,08,09,06,48,16.00
2018,08,09,06,49,16.00
2018,08,09,06,50,16.10
2018,08,09,06,51,16.20
2018,08,09,06,52,16.20
2018,08,09,06,53,16.30
2018,08,09,06,54,16.30
2018,08,09,06,55,16.40
2018,08,09,06,56,16.50
2018,08,09,06,57,16.60
2018,08,09,06,58,16.70
2018,08,09,06,59,16.80
2018,08,09,07,00,16.90
2018,08,09,07,01,16.90
2018,08,09,07,02,17.00
2018,08,09,07,03,17.00
2018,08,09,07,04,16.90
2018,08,09,07,05,16.90
2018,08,09,07,06,16.90
2018,08,09,07,07,16.90
2018,08,09,07,08,16.90
2018,08,09,07,09,16.90
2018,08,09,07,10,17.00
2018,08,09,07,11,17.00
2018,08,09,07,12,17.10
2018,08,09,07,13,17.20
2018,08,09,07,14,17.30
2018,08,09,07,15,17.30
2018,08,09,07,16,17.50
2018,08,09,07,17,17.60
2018,08,09,07,18,17.70
2018,08,09,07,19,17.70
2018,08,09,07,20,17.80
2018,08,09,07,21,17.90
2018,08,09,07,22,18.00
2018,08,09,07,23,18.00
2018,08,09,07,24,18.10
2018,08,09,07,25,18.10
2018,08,09,07,26,18.20
2018,08,09,07,27,18.40
2018,08,09,07,28,18.50
2018,08,09,07,29,18.70
2018,08,09,07,30,18.90
2018,08,09,07,31,19.00
2018,08,09,07,32,19.10
2018,08,09,07,33,19.20
2018,08,09,07,34,19.20
2018,08,09,07,35,19.20
2018,08,09,07,36,19.10
2018,08,09,07,37,19.10
2018,08,09,07,38,19.20
2018,08,09,07,39,19.20
2018,08,09,07,40,19.20
2018,08,09,07,41,19.20
2018,08,09,07,42,19.20
2018,08,09,07,43,19.20
2018,08,09,07,44,19.20
2018,08,09,07,45,19.20
2018,08,09,07,46,19.10
2018,08,09,07,47,19.00
2018,08,09,07,48,18.90
2018,08,09,07,49,18.80
2018,08,09,07,50,18.80
2018,08,09,07,51,18.90
2018,08,09,07,52,18.90
2018,08,09,07,53,19.00
2018,08,09,07,54,19.00
2018,08,09,07,55,19.10
2018,08,09,07,56,19.20
2018,08,09,07,57,19.30
2018,08,09,07,58,19.40
2018,08,09,07,59,19.60
2018,08,09,08,00,19.60
2018,08,09,08,01,19.70
2018,08,09,08,02,19.70
2018,08,09,08,03,19.70
2018,08,09,08,04,19.70
2018,08,09,08,05,19.70
2018,08,09,08,06,19.60
2018,08,09,08,07,19.60
2018,08,09,08,08,19.60
2018,08,09,08,09,19.60
2018,08,09,08,10,19.60
2018,08,09,08,11,19.60
2018,08,09,08,12,19.60
2018,08,09,08,13,19.60
2018,08,09,08,14,19.60
2018,08,09,08,15,19.70
2018,08,09,08,16,19.70
2018,08,09,08,17,19.80
2018,08,09,08,18,19.80
2018,08,09,08,19,19.90
2018,08,09,08,20,20.00
2018,08,09,08,21,20.00
2018,08,09,08,22,20.20
2018,08,09,08,23,20.30
2018,08,09,08,24,20.40
2018,08,09,08,25,20.50
2018,08,09,08,26,20.60
2018,08,09,08,27,20.80
2018,08,09,08,28,20.80
2018,08,09,08,29,20.80
2018,08,09,08,30,20.80
2018,08,09,08,31,20.80
2018,08,09,08,32,20.80
2018,08,09,08,33,20.80
2018,08,09,08,34,20.70
2018,08,09,08,35,20.70
2018,08,09,08,36,20.70
2018,08,09,08,37,20.70
2018,08,09,08,38,20.60
2018,08,09,08,39,20.60
2018,08,09,08,40,20.70
2018,08,09,08,41,20.70
2018,08,09,08,42,20.70
2018,08,09,08,43,20.80
2018,08,09,08,44,20.80
2018,08,09,08,45,20.80
2018,08,09,08,46,20.80
2018,08,09,08,47,20.80
2018,08,09,08,48,20.90
2018,08,09,08,49,21.00
2018,08,09,08,50,21.20
2018,08,09,08,51,21.20
2018,08,09,08,52,21.30
2018,08,09,08,53,21.30
2018,08,09,08,54,21.30
2018,08,09,08,55,21.30
2018,08,09,08,56,21.30
2018,08,09,08,57,21.40
2018,08,09,08,58,21.50
2018,08,09,08,59,21.50
2018,08,09,09,00,21.60
2018,08,09,09,01,21.60
2018,08,09,09,02,21.60
2018,08,09,09,03,21.60
2018,08,09,09,04,21.60
2018,08,09,09,05,21.60
2018,08,09,09,06,21.70
2018,08,09,09,07,21.80
2018,08,09,09,08,21.90
2018,08,09,09,09,22.00
2018,08,09,09,10,22.20
2018,08,09,09,11,22.30
2018,08,09,09,12,22.30
2018,08,09,09,13,22.50
2018,08,09,09,14,22.60
2018,08,09,09,15,22.60
2018,08,09,09,16,22.70
2018,08,09,09,17,22.70
2018,08,09,09,18,22.80
2018,08,09,09,19,22.80
2018,08,09,09,20,22.80
2018,08,09,09,21,22.80
2018,08,09,09,22,22.80
2018,08,09,09,23,22.80
2018,08,09,09,24,22.80
2018,08,09,09,25,22.90
2018,08,09,09,26,22.90
2018,08,09,09,27,23.00
2018,08,09,09,28,23.20
2018,08,09,09,29,23.30
2018,08,09,09,30,23.40
2018,08,09,09,31,23.50
2018,08,09,09,32,23.70
2018,08,09,09,33,23.80
2018,08,09,09,34,23.90
2018,08,09,09,35,23.90
2018,08,09,09,36,23.90
2018,08,09,09,37,23.90
2018,08,09,09,38,23.90
2018,08,09,09,39,23.90
2018,08,09,09,40,23.90
2018,08,09,09,41,23.90
2018,08,09,09,42,23.80
2018,08,09,09,43,23.70
2018,08,09,09,44,23.70
2018,08,09,09,45,23.60
2018,08,09,09,46,23.60
2018,08,09,09,47,23.60
2018,08,09,09,48,23.60
2018,08,09,09,49,23.70
2018,08,09,09,50,23.70
2018,08,09,09,51,23.70
2018,08,09,09,52,23.70
2018,08,09,09,53,23.80
2018,08,09,09,54,23.80
2018,08,09,09,55,23.80
2018,08,09,09,56,23.80
2018,08,09,09,57,24.00
2018,08,09,09,58,24.10
2018,08,09,09,59,24.30
2018,08,09,10,00,24.30
2018,08,09,10,01,24.30
2018,08,09,10,02,24.30
2018,08,09,10,03,24.20
2018,08,09,10,04,24.20
2018,08,09,10,05,24.20
2018,08,09,10,06,24.20
2018,08,09,10,07,24.20
2018,08,09,10,08,24.20
2018,08,09,10,09,24.10
2018,08,09,10,10,24.00
2018,08,09,10,11,24.00
2018,08,09,10,12,23.90
2018,08,09,10,13,23.90
2018,08,09,10,14,23.80
2018,08,09,10,15,23.60
2018,08,09,10,16,23.60
2018,08,09,10,17,23.60
2018,08,09,10,18,23.70
2018,08,09,10,19,23.90
2018,08,09,10,20,23.80
2018,08,09,10,21,23.70
2018,08,09,10,22,23.70
2018,08,09,10,23,23.60
2018,08,09,10,24,23.50
2018,08,09,10,25,23.40
2018,08,09,10,26,23.40
2018,08,09,10,27,23.40
2018,08,09,10,28,23.40
2018,08,09,10,29,23.40
2018,08,09,10,30,23.40
2018,08,09,10,31,23.50
2018,08,09,10,32,23.60
2018,08,09,10,33,23.60
2018,08,09,10,34,23.70
2018,08,09,10,35,23.80
2018,08,09,10,36,23.90
2018,08,09,10,37,24.00
2018,08,09,10,38,24.10
2018,08,09,10,39,24.20
2018,08,09,10,40,24.20
2018,08,09,10,41,24.20
2018,08,09,10,42,24.10
2018,08,09,10,43,24.10
2018,08,09,10,44,24.10
2018,08,09,10,45,24.20
2018,08,09,10,46,24.30
2018,08,09,10,47,24.20
2018,08,09,10,48,24.20
2018,08,09,10,49,24.00
2018,08,09,10,50,23.90
2018,08,09,10,51,23.80
2018,08,09,10,52,23.80
2018,08,09,10,53,23.80
2018,08,09,10,54,23.80
2018,08,09,10,55,23.70
2018,08,09,10,56,23.70
2018,08,09,10,57,23.70
2018,08,09,10,58,23.80
2018,08,09,10,59,23.90
2018,08,09,11,00,24.00
2018,08,09,11,01,24.20
2018,08,09,11,02,24.30
2018,08,09,11,03,24.40
2018,08,09,11,04,24.50
2018,08,09,11,05,24.60
2018,08,09,11,06,24.60
2018,08,09,11,07,24.50
2018,08,09,11,08,24.40
2018,08,09,11,09,24.30
2018,08,09,11,10,24.30
2018,08,09,11,11,24.30
2018,08,09,11,12,24.30
2018,08,09,11,13,24.30
2018,08,09,11,14,24.30
2018,08,09,11,15,24.30
2018,08,09,11,16,24.30
2018,08,09,11,17,24.40
2018,08,09,11,18,24.50
2018,08,09,11,19,24.60
2018,08,09,11,20,24.60
2018,08,09,11,21,24.60
2018,08,09,11,22,24.70
2018,08,09,11,23,24.80
2018,08,09,11,24,24.90
2018,08,09,11,25,24.90
2018,08,09,11,26,24.90
2018,08,09,11,27,24.90
2018,08,09,11,28,24.80
2018,08,09,11,29,24.80
2018,08,09,11,30,24.80
2018,08,09,11,31,24.80
2018,08,09,11,32,24.90
2018,08,09,11,33,25.00
2018,08,09,11,34,25.10
2018,08,09,11,35,25.00
2018,08,09,11,36,25.00
2018,08,09,11,37,25.00
2018,08,09,11,38,25.20
2018,08,09,11,39,25.30
2018,08,09,11,40,25.40
2018,08,09,11,41,25.60
2018,08,09,11,42,25.60
2018,08,09,11,43,25.70
2018,08,09,11,44,25.80
2018,08,09,11,45,25.80
2018,08,09,11,46,25.80
2018,08,09,11,47,25.80
2018,08,09,11,48,25.80
2018,08,09,11,49,25.80
2018,08,09,11,50,25.70
2018,08,09,11,51,25.70
2018,08,09,11,52,25.60
2018,08,09,11,53,25.60
2018,08,09,11,54,25.60
2018,08,09,11,55,25.70
2018,08,09,11,56,25.70
2018,08,09,11,57,25.80
2018,08,09,11,58,25.90
2018,08,09,11,59,25.80
2018,08,09,12,00,25.90
2018,08,09,12,01,25.90
2018,08,09,12,02,26.00
2018,08,09,12,03,26.10
2018,08,09,12,04,26.20
2018,08,09,12,05,26.20
2018,08,09,12,06,26.30
2018,08,09,12,07,26.30
2018,08,09,12,08,26.30
2018,08,09,12,09,26.30
2018,08,09,12,10,26.20
2018,08,09,12,11,26.20
2018,08,09,12,12,26.20
2018,08,09,12,13,26.20
2018,08,09,12,14,26.20
2018,08,09,12,15,26.20
2018,08,09,12,16,26.30
2018,08,09,12,17,26.40
2018,08,09,12,18,26.50
2018,08,09,12,19,26.60
2018,08,09,12,20,26.60
2018,08,09,12,21,26.70
2018,08,09,12,22,26.80
2018,08,09,12,23,26.70
2018,08,09,12,24,26.70
2018,08,09,12,25,26.80
2018,08,09,12,26,26.90
2018,08,09,12,27,26.80
2018,08,09,12,28,26.70
2018,08,09,12,29,26.70
2018,08,09,12,30,26.70
2018,08,09,12,31,26.70
2018,08,09,12,32,26.60
2018,08,09,12,33,26.40
2018,08,09,12,34,26.30
2018,08,09,12,35,26.20
2018,08,09,12,36,26.20
2018,08,09,12,37,26.30
2018,08,09,12,38,26.40
2018,08,09,12,39,26.60
2018,08,09,12,40,26.70
2018,08,09,12,41,26.80
2018,08,09,12,42,26.90
2018,08,09,12,43,26.90
2018,08,09,12,44,26.90
2018,08,09,12,45,26.90
2018,08,09,12,46,26.90
2018,08,09,12,47,26.90
2018,08,09,12,48,26.90
2018,08,09,12,49,26.90
2018,08,09,12,50,26.80
2018,08,09,12,51,26.80
2018,08,09,12,52,26.70
2018,08,09,12,53,26.70
2018,08,09,12,54,26.60
2018,08,09,12,55,26.60
2018,08,09,12,56,26.60
2018,08,09,12,57,26.60
2018,08,09,12,58,26.80
2018,08,09,12,59,26.90
2018,08,09,13,00,27.10
2018,08,09,13,01,27.10
2018,08,09,13,02,27.00
2018,08,09,13,03,26.90
2018,08,09,13,04,27.00
2018,08,09,13,05,27.00
2018,08,09,13,06,27.00
2018,08,09,13,07,27.00
2018,08,09,13,08,27.00
2018,08,09,13,09,26.90
2018,08,09,13,10,27.00
2018,08,09,13,11,27.00
2018,08,09,13,12,27.00
2018,08,09,13,13,26.90
2018,08,09,13,14,26.90
2018,08,09,13,15,26.90
2018,08,09,13,16,26.90
2018,08,09,13,17,26.90
2018,08,09,13,18,27.00
2018,08,09,13,19,27.30
2018,08,09,13,20,27.60
2018,08,09,13,21,27.90
2018,08,09,13,22,28.00
2018,08,09,13,23,28.10
2018,08,09,13,24,28.10
2018,08,09,13,25,28.00
2018,08,09,13,26,27.80
2018,08,09,13,27,27.80
2018,08,09,13,28,27.80
2018,08,09,13,29,27.80
2018,08,09,13,30,27.80
2018,08,09,13,31,27.70
2018,08,09,13,32,27.60
2018,08,09,13,33,27.50
2018,08,09,13,34,27.40
2018,08,09,13,35,27.20
2018,08,09,13,36,27.10
2018,08,09,13,37,27.00
2018,08,09,13,38,26.90
2018,08,09,13,39,26.90
2018,08,09,13,40,26.80
2018,08,09,13,41,26.80
2018,08,09,13,42,26.60
2018,08,09,13,43,26.50
2018,08,09,13,44,26.20
2018,08,09,13,45,25.90
2018,08,09,13,46,25.70
2018,08,09,13,47,25.50
2018,08,09,13,48,25.50
2018,08,09,13,49,25.50
2018,08,09,13,50,25.40
2018,08,09,13,51,25.40
2018,08,09,13,52,25.50
2018,08,09,13,53,25.60
2018,08,09,13,54,25.80
2018,08,09,13,55,25.90
2018,08,09,13,56,25.90
2018,08,09,13,57,25.80
2018,08,09,13,58,25.90
2018,08,09,13,59,25.90
2018,08,09,14,00,26.00
2018,08,09,14,01,26.00
2018,08,09,14,02,25.90
2018,08,09,14,03,25.90
2018,08,09,14,04,25.90
2018,08,09,14,05,25.80
2018,08,09,14,06,25.80
2018,08,09,14,07,25.80
2018,08,09,14,08,25.80
2018,08,09,14,09,26.00
2018,08,09,14,10,26.30
2018,08,09,14,11,26.60
2018,08,09,14,12,26.70
2018,08,09,14,13,26.80
2018,08,09,14,14,27.00
2018,08,09,14,15,27.20
2018,08,09,14,16,27.40
2018,08,09,14,17,27.50
2018,08,09,14,18,27.60
2018,08,09,14,19,27.70
2018,08,09,14,20,27.80
2018,08,09,14,21,27.70
2018,08,09,14,22,27.50
2018,08,09,14,23,27.30
2018,08,09,14,24,27.20
2018,08,09,14,25,27.10
2018,08,09,14,26,27.10
2018,08,09,14,27,27.10
2018,08,09,14,28,27.20
2018,08,09,14,29,27.40
2018,08,09,14,30,27.50
2018,08,09,14,31,27.60
2018,08,09,14,32,27.60
2018,08,09,14,33,27.60
2018,08,09,14,34,27.60
2018,08,09,14,35,27.70
2018,08,09,14,36,27.80
2018,08,09,14,37,28.00
2018,08,09,14,38,28.10
2018,08,09,14,39,28.30
2018,08,09,14,40,28.50
2018,08,09,14,41,28.70
2018,08,09,14,42,28.80
2018,08,09,14,43,28.90
2018,08,09,14,44,28.90
2018,08,09,14,45,28.90
2018,08,09,14,46,28.90
2018,08,09,14,47,28.90
2018,08,09,14,48,29.00
2018,08,09,14,49,29.00
2018,08,09,14,50,29.10
2018,08,09,14,51,29.20
2018,08,09,14,52,29.60
2018,08,09,14,53,30.00
2018,08,09,14,54,30.40
2018,08,09,14,55,30.70
2018,08,09,14,56,31.00
2018,08,09,14,57,31.30
2018,08,09,14,58,31.40
2018,08,09,14,59,31.60
2018,08,09,15,00,31.70
2018,08,09,15,01,31.80
2018,08,09,15,02,31.80
2018,08,09,15,03,31.80
2018,08,09,15,04,31.80
2018,08,09,15,05,31.80
2018,08,09,15,06,31.90
2018,08,09,15,07,32.00
2018,08,09,15,08,32.10
2018,08,09,15,09,32.20
2018,08,09,15,10,32.20
2018,08,09,15,11,32.30
2018,08,09,15,12,32.30
2018,08,09,15,13,32.30
2018,08,09,15,14,32.30
2018,08,09,15,15,32.30
2018,08,09,15,16,32.20
2018,08,09,15,17,32.10
2018,08,09,15,18,32.00
2018,08,09,15,19,32.00
2018,08,09,15,20,32.00
2018,08,09,15,21,32.10
2018,08,09,15,22,32.20
2018,08,09,15,23,32.30
2018,08,09,15,24,32.30
2018,08,09,15,25,32.50
2018,08,09,15,26,32.70
2018,08,09,15,27,32.80
2018,08,09,15,28,32.80
2018,08,09,15,29,32.70
2018,08,09,15,30,32.60
2018,08,09,15,31,32.60
2018,08,09,15,32,32.70
2018,08,09,15,33,32.70
2018,08,09,15,34,32.80
2018,08,09,15,35,32.70
2018,08,09,15,36,32.60
2018,08,09,15,37,32.50
2018,08,09,15,38,32.50
2018,08,09,15,39,32.60
2018,08,09,15,40,32.60
2018,08,09,15,41,32.70
2018,08,09,15,42,32.70
2018,08,09,15,43,32.70
2018,08,09,15,44,32.80
2018,08,09,15,45,32.70
2018,08,09,15,46,32.70
2018,08,09,15,47,32.70
2018,08,09,15,48,32.80
2018,08,09,15,49,32.90
2018,08,09,15,50,32.80
2018,08,09,15,51,32.50
2018,08,09,15,52,32.20
2018,08,09,15,53,31.90
2018,08,09,15,54,31.80
2018,08,09,15,55,31.80
2018,08,09,15,56,31.90
2018,08,09,15,57,32.00
2018,08,09,15,58,32.20
2018,08,09,15,59,32.30
2018,08,09,16,00,32.40
2018,08,09,16,01,32.40
2018,08,09,16,02,32.40
2018,08,09,16,03,32.40
2018,08,09,16,04,32.40
2018,08,09,16,05,32.40
2018,08,09,16,06,32.50
2018,08,09,16,07,32.60
2018,08,09,16,08,32.70
2018,08,09,16,09,32.80
2018,08,09,16,10,32.90
2018,08,09,16,11,33.00
2018,08,09,16,12,33.00
2018,08,09,16,13,33.10
2018,08,09,16,14,33.10
2018,08,09,16,15,33.10
2018,08,09,16,16,33.10
2018,08,09,16,17,33.00
2018,08,09,16,18,33.00
2018,08,09,16,19,33.00
2018,08,09,16,20,33.00
2018,08,09,16,21,33.10
2018,08,09,16,22,33.10
2018,08,09,16,23,33.20
2018,08,09,16,24,33.20
2018,08,09,16,25,33.20
2018,08,09,16,26,33.20
2018,08,09,16,27,33.30
2018,08,09,16,28,33.30
2018,08,09,16,29,33.20
2018,08,09,16,30,33.20
2018,08,09,16,31,33.20
2018,08,09,16,32,33.10
2018,08,09,16,33,33.20
2018,08,09,16,34,33.20
2018,08,09,16,35,33.10
2018,08,09,16,36,33.10
2018,08,09,16,37,33.10
2018,08,09,16,38,33.20
2018,08,09,16,39,33.20
2018,08,09,16,40,33.10
2018,08,09,16,41,33.10
2018,08,09,16,42,33.10
2018,08,09,16,43,33.10
2018,08,09,16,44,33.10
2018,08,09,16,45,33.10
2018,08,09,16,46,33.10
2018,08,09,16,47,33.00
2018,08,09,16,48,32.90
2018,08,09,16,49,32.90
2018,08,09,16,50,32.90
2018,08,09,16,51,33.00
2018,08,09,16,52,33.00
2018,08,09,16,53,33.10
2018,08,09,16,54,33.20
2018,08,09,16,55,33.20
2018,08,09,16,56,33.30
2018,08,09,16,57,33.30
2018,08,09,16,58,33.30
2018,08,09,16,59,33.30
2018,08,09,17,00,33.30
2018,08,09,17,01,33.30
2018,08,09,17,02,33.30
2018,08,09,17,03,33.30
2018,08,09,17,04,33.30
2018,08,09,17,05,33.30
2018,08,09,17,06,33.30
2018,08,09,17,07,33.20
2018,08,09,17,08,33.20
2018,08,09,17,09,33.20
2018,08,09,17,10,33.20
2018,08,09,17,11,33.30
2018,08,09,17,12,33.30
2018,08,09,17,13,33.30
2018,08,09,17,14,33.30
2018,08,09,17,15,33.20
2018,08,09,17,16,33.20
2018,08,09,17,17,33.20
2018,08,09,17,18,33.20
2018,08,09,17,19,33.30